EUTELSAT 36D

Last updated on Fri Apr 18 2025 00:02:43 GMT+0000 (Coordinated Universal Time)

1 59346U 24059A 25107.56711427 .00000165 00000+0 00000+0 0 9995 2 59346 0.0174 248.2559 0000160 186.5964 11.1006 1.00271533 3871
UTC large
Height (km)
Speed (km/s)
/
Latitude / Longitude
Inclination (degrees)
Orbital Period (minutes)
Azimuth
Elevation
Range (km)
Doppler Factor

Next 0 passes for location: London (51.5072 / 0.1276)

Sorry there are no passes over London.